CST,Max TemperatureF,Mean TemperatureF,Min TemperatureF,Max Dew PointF,MeanDew PointF,Min DewpointF,Max Humidity, Mean Humidity, Min Humidity, Max Sea Level PressureIn, Mean Sea Level PressureIn, Min Sea Level PressureIn, Max VisibilityMiles, Mean VisibilityMiles, Min VisibilityMiles, Max Wind SpeedMPH, Mean Wind SpeedMPH, Max Gust SpeedMPH,PrecipitationIn, CloudCover, Events, WindDirDegrees
2013-2-1,37,24,12,27,19,9,86,73,52,30.33,30.16,30.03,10,10,10,22,10,28,0.00,2,,211
2013-2-2,55,40,26,34,27,23,93,65,31,30.28,30.21,30.10,10,10,10,18,9,22,0.00,0,,301
2013-2-3,55,40,24,30,26,19,86,61,36,30.28,30.06,29.80,10,10,10,20,8,24,0.00,0,,221
2013-2-4,51,42,32,28,26,23,80,62,38,29.99,29.90,29.80,10,10,10,12,7,,0.00,0,,339
2013-2-5,60,43,26,30,26,18,80,56,27,30.04,29.97,29.88,10,10,10,15,8,18,0.00,0,,357
2013-2-6,62,44,26,45,35,19,100,76,48,29.99,29.86,29.73,10,8,0,24,7,30,0.00,2,,163
2013-2-7,55,42,28,45,29,19,100,61,29,30.19,30.04,29.84,10,9,0,24,11,26,0.00,2,,10
2013-2-8,53,36,19,32,25,18,100,67,33,30.23,30.13,29.98,10,10,10,24,8,29,0.00,0,,157
2013-2-9,53,43,33,39,33,27,100,79,54,29.98,29.75,29.42,10,8,2,33,19,40,0.00,4,,165
2013-2-10,44,36,26,43,24,18,93,63,42,30.04,29.63,29.34,10,10,10,36,25,47,0.00,4,,290
2013-2-11,41,30,19,19,16,12,93,62,33,30.20,30.12,30.04,10,10,10,13,7,,0.00,0,,316
2013-2-12,50,36,23,27,17,7,86,55,23,30.12,30.03,29.95,10,10,8,13,4,,0.00,0,,299
2013-2-13,57,38,19,21,18,12,80,49,21,29.98,29.91,29.84,10,10,10,21,9,28,0.00,1,,292
2013-2-14,44,35,24,30,23,14,86,61,41,30.31,30.11,29.93,10,10,10,23,12,28,0.00,3,,325
2013-2-15,41,26,10,19,13,5,93,61,33,30.39,30.34,30.27,10,10,10,21,9,22,0.00,3,,316
2013-2-16,60,35,10,27,18,5,86,56,25,30.35,30.10,29.95,10,10,10,18,7,25,0.00,3,,284
2013-2-17,69,46,23,28,21,14,80,47,12,29.95,29.73,29.45,10,10,10,23,8,33,0.00,0,,217
2013-2-18,48,34,21,28,20,10,65,48,25,30.12,29.82,29.40,10,10,10,36,16,45,0.00,1,,340
2013-2-19,42,28,15,16,13,9,93,57,34,30.30,30.20,30.13,10,10,10,15,7,,0.00,0,,51
2013-2-20,26,24,21,25,16,3,93,73,40,30.16,30.04,29.94,10,5,0,22,15,25,0.00,7,,101
2013-2-21,21,18,14,19,15,10,93,86,79,29.96,29.83,29.76,10,4,0,21,16,24,0.00,7,,21
2013-2-22,21,12,3,16,8,-2,100,82,68,30.06,30.00,29.89,10,10,9,15,10,,0.00,0,,279
2013-2-23,35,16,-2,28,14,-6,100,87,75,30.00,29.87,29.79,10,7,3,12,6,,0.17,0,,214
2013-2-24,33,20,8,28,21,3,100,89,75,29.97,29.84,29.78,10,6,0,20,8,24,0.01,6,,53
2013-2-25,32,30,28,28,27,25,93,87,80,29.98,29.92,29.86,10,6,1,23,20,28,0.02,8,,7
2013-2-26,32,24,17,25,20,14,93,80,64,29.94,29.84,29.79,10,10,8,17,13,,0.00,2,,333
2013-2-27,35,26,17,28,22,14,93,76,64,30.18,30.09,29.94,10,10,6,29,12,36,0.00,5,,329
2013-2-28,33,27,19,27,22,14,93,77,69,30.24,30.20,30.17,10,9,2,16,10,20,0.00,0,,324